Location: Cran-Gévrier
(45.9039°N, 6.1012°E)
Time: 20:10:40
(UTC+00:00)

BlueWalker 3 - Pass Details

Date: 09 February 2023
Orbit: 497 x 515 km, 53.2° (Epoch: 23 March)

Event Time Altitude Azimuth Distance (km) Brightness Sun altitude
Rises 18:16:07 0° 301° (WNW) 2,605 6.5 -14.9°
Reaches altitude 10° 18:18:19 10° 304° (NW) 1,721 5.4 -15.3°
Maximum altitude 18:22:12 71° 29° (NNE) 541 1.9 -16.0°
Enters shadow 18:23:50 33° 106° (ESE) 878 2.6 -16.3°
